User: anonymous   Login
Location: Unspecified
(0.0000°N, 0.0000°E)
Time: 03:11:28
(UTC+00:00)
Language:

Cosmos 1732 - Orbit

View from above orbital plane
View from above orbital plane
View from above satellite
View from above satellite

Ground track
Ground track

The orbit data is extracted from the following two-line orbital elements,

1 16593U 86015A   18202.53004559 +.00000002 +00000-0 +14730-3 0  9998
2 16593 073.6069 215.0805 0029626 245.1303 229.4547 12.41040188469574
Epoch (UTC): 21 July 2018 12:43:15
Eccentricity: 0.0029626
inclination: 73.6069°
perigee height: 1479 km
apogee height: 1525 km
right ascension of ascending node: 215.0805°
argument of perigee: 245.1303°
revolutions per day: 12.41040188
mean anomaly at epoch: 229.4547°
orbit number at epoch: 46957

The dashed part of the orbit path shows where the satellite is in the earth's shadow,  

DLR